#timestamp,LO_Frequency,Hit,StdDev 
1619377215.1,286046998.0,N
1619377235.9,286046995.2,N
1619377255.7,286046995.1,N
1619377275.5,286046997.2,N
1619377295.4,286046997.5,N
1619377315.2,286046997.7,N
1619377335.0,286046997.0,N
1619377335.9,286046997.0,N
1619377355.8,286046999.6,N
1619377375.6,286046999.6,N
1619377395.5,286046995.2,N
1619377415.3,286046995.4,N
1619377435.1,286046995.0,N
1619377455.9,286046997.5,N
1619377475.7,286046997.6,N
1619377495.6,286046997.8,N
1619377515.4,286046997.6,N
1619377535.2,286046996.6,N
1619377555.1,286046996.9,N
1619377556.0,286046996.9,N
1619377575.8,286046995.3,N
1619377595.7,286046996.1,N
1619377615.5,286046995.2,Y
1619377635.3,286046998.9,P
1619377655.2,286046999.4,N
1619377675.9,286046998.9,N
1619377695.7,286047000.5,N
1619377715.6,286047002.7,N
1619377735.4,286047002.6,N
1619377755.3,286047002.3,N
1619377775.1,286047004.2,N
1619377776.0,286047004.2,N
1619377795.8,286047001.7,N
1619377815.7,286047002.9,N
1619377835.5,286047001.7,N
1619377855.3,286047005.9,N
1619377875.2,286047003.8,N
1619377895.0,286047001.3,N
1619377895.9,286047001.3,N
1619377915.8,286047004.1,N
1619377935.6,286047003.8,N
1619377955.4,286047001.6,N
1619377975.3,286047001.9,N
1619377995.1,286047001.7,N
1619378015.8,286047004.0,N
1619378035.7,286047003.9,N
1619378055.5,286047003.5,N
1619378075.3,286047004.4,N
1619378095.2,286047001.6,N
1619378115.0,286047002.4,N
1619378115.9,286047002.4,N
1619378135.8,286047002.4,N
1619378155.6,286047003.6,N
1619378175.4,286047004.8,N
1619378195.3,286047005.8,Y
1619378215.1,286047000.4,P
1619378235.9,286047000.5,N
1619378255.7,286046999.9,N
1619378275.5,286047001.0,N
1619378295.4,286047001.6,N
1619378315.2,286046999.9,N
1619378335.0,286046999.9,N
1619378335.9,286046999.9,N
1619378355.8,286047002.8,Y
1619378375.6,286047000.7,P
1619378395.5,286047000.8,P
1619378415.3,286047001.0,P
1619378435.1,286046998.2,Y
1619378455.9,286046998.8,P
1619378475.7,286046997.7,N
1619378495.6,286046999.6,N
1619378515.4,286046999.1,N
1619378535.2,286046999.4,N
1619378555.1,286046997.8,N
1619378556.0,286046997.8,N
1619378575.8,286046997.7,N
1619378595.6,286046997.8,N
1619378615.5,286046997.4,N
1619378635.3,286046999.6,N
1619378655.2,286046998.4,N
1619378675.9,286046999.2,N
1619378695.7,286046999.1,N
1619378715.6,286046998.4,N
1619378735.4,286046999.1,N
1619378755.2,286046999.1,N
1619378775.1,286046999.2,N
1619378776.0,286046999.2,N
1619378795.8,286046999.1,N
1619378815.7,286046997.1,Y
1619378835.5,286046998.6,P
1619378855.3,286047000.9,P
1619378875.2,286047000.8,N
1619378895.0,286047000.2,N
1619378895.9,286047000.2,N
1619378915.8,286046999.7,N
1619378935.6,286047001.1,N
1619378955.4,286046999.8,N
1619378975.3,286047003.9,Y
1619378995.1,286047001.9,P
1619379015.8,286047001.4,N
1619379035.7,286046999.7,N
1619379055.5,286047004.8,Y
1619379075.4,286047013.2,P
1619379095.2,286047021.5,P
1619379115.0,286047021.2,N
1619379115.9,286047021.2,N
1619379135.8,286047018.6,N
1619379155.6,286047017.1,N
1619379175.4,286047016.2,N
1619379195.3,286047012.9,N
1619379215.1,286047009.6,N
1619379235.9,286047007.9,N
1619379255.7,286047006.7,N
1619379275.5,286047007.6,N
1619379295.4,286047005.6,N
1619379315.2,286047005.3,N
1619379335.0,286047005.2,N
1619379335.9,286047005.2,N
1619379355.8,286047005.5,N
1619379375.6,286047003.2,N
1619379395.5,286047003.4,N
1619379415.3,286047001.8,N
1619379435.1,286047002.7,N
1619379455.9,286047004.3,N
1619379475.7,286047001.8,N
1619379495.5,286047000.6,N
1619379515.4,286047002.4,N
1619379535.2,286047001.3,N
1619379555.0,286047008.0,N
1619379555.9,286047008.0,N
1619379575.8,286047007.2,N
1619379595.6,286047006.5,N
1619379615.5,286047010.6,N
1619379635.3,286047009.9,N
1619379655.1,286047007.4,N
1619379675.9,286047006.8,N
1619379695.7,286047005.5,N
1619379715.5,286047003.3,N
1619379735.4,286047003.5,N
1619379755.2,286047004.1,N
1619379775.1,286047001.4,N
1619379776.0,286047001.4,N
1619379795.8,286047002.2,N
1619379815.6,286047000.0,N
1619379835.5,286047002.5,N
1619379855.3,286047001.6,N
1619379875.1,286047001.8,N
1619379895.9,286047003.1,N
1619379915.7,286047004.2,N
1619379935.6,286047005.5,N
1619379955.4,286047003.4,N
1619379975.2,286047001.5,N
1619379995.1,286047001.5,N
1619379996.0,286047001.5,N
1619380015.8,286047002.5,N
1619380035.6,286047002.8,N
1619380055.5,286046998.6,N
1619380075.3,286046999.9,N
1619380095.2,286047000.8,N
1619380115.9,286047000.7,N
1619380135.7,286046998.4,N
1619380155.6,286047000.5,N
1619380175.4,286047002.3,N
1619380195.2,286047001.6,N
1619380215.1,286046999.7,N
1619380216.0,286046999.7,N
1619380235.8,286046999.8,N
1619380255.8,286046999.9,N
1619380275.6,286047001.5,N
1619380295.4,286047001.3,N
1619380315.3,286047001.7,N
1619380335.1,286047002.6,N
1619380355.8,286047002.6,N
1619380375.7,286047002.5,N
1619380395.5,286047001.7,N
1619380415.4,286047002.2,N
1619380435.2,286047002.8,N
1619380455.0,286047002.7,N
1619380455.9,286047002.7,N
1619380475.8,286047001.6,N
1619380495.6,286047001.4,N
1619380515.5,286047001.5,N
1619380535.3,286047001.8,N
1619380555.1,286047002.9,N
1619380575.9,286047003.9,Y
1619380595.7,286047002.4,P
1619380615.5,286047001.6,P
1619380635.4,286047001.8,P
1619380655.2,286046999.8,N
1619380675.1,286047002.3,N
1619380676.0,286047002.3,N
1619380695.8,286047001.8,N
1619380715.6,286047001.9,N
1619380735.5,286047001.0,N
1619380755.3,286046998.5,N
1619380775.1,286047000.7,N
1619380795.9,286047001.1,N
